sat.trackr.live / text

‹ back to catalog

STARLINK-5498

NORAD 55633 · 2023-021F

PAYLOAD ACTIVE UNKNOWN

§ Identity

Operator
Country
US
Launch date
2023-02-17
Launch site
AFWTR
Launch vehicle
Mass (kg)
RCS (m²)

Purposes: comms

External: N2YO · Heavens-Above · Gunter

§ Orbital elements

Epoch: 2026-05-25T00:43:10.888032Z

Period
96.11 min
Inclination
69.9997°
Eccentricity
0.0002967
Mean motion
14.98341766 rev/d
Perigee alt
570.0 km
Apogee alt
574.1 km
Semi-major
6,950.2 km
B*
-3.1476e-4
RAAN
11.9607°
Arg perigee
263.5393°
Mean anomaly
96.5428°
Rev number
17,973

§ Raw data

STARLINK-54981 55633U 23021F   26145.02998713 -.00003848  00000+0 -31476-3 0  99952 55633  69.9997  11.9607 0002967 263.5393  96.5428 14.98341766179732

JSON: /api/v1/satellites/55633 · /tle

For live sub-satellite position, see the globe view (requires WebGL).

§ Visibility from observer

Set your observer location to see the next 7 days of passes ≥ 10°. The values pass through the URL so the page stays shareable.

No JS? Fill the form by hand. The geolocation button needs JavaScript.